{"data":{"norad_id":61883,"epoch":"2026-09-21T20:00:58.336128Z","epoch_age_seconds":72959,"freshness":"FRESH","line1":"1 61883U 24204K   26264.83400852 -.00000580  00000+0  66647-7 0  9997","line2":"2 61883  53.1585 109.1689 0000788  99.3094 260.8013 15.69708368107726","mean_motion":15.69708368,"eccentricity":7.88e-5,"inclination_deg":53.1585,"raan_deg":109.1689,"arg_perigee_deg":99.3094,"mean_anomaly_deg":260.8013,"bstar":6.6647e-8,"rev_number":10772,"period_min":91.736785593794,"perigee_km":359.20047655159,"apogee_km":360.26236461467,"semimajor_km":6737.8684205831,"source":"CELESTRAK","updated_at":"2026-09-22T09:00:49.446242Z"}}